www.pogodaiklimat.ru

Погода и климат >> Архив погоды >> Германия >> Berlin


АРХИВ ПОГОДЫ в Berlin

Время (UTC), дата Ветер
(напр.,м/с)
 
Видим.   Явления Облачность Т
(С)
Тd
(С)
f
(%)
Тe
(С)
Тes
(С)
Комфортность P
(гПа)
Po
(гПа)
Тmin
(С)
Tmax
(С)
R
(мм)
R24
(мм)
S
(см)
07 19.09 ЮЗ 2-3
{3}
н/о н/о +19.3 +12.5 65 +21 +21 комфорт 1018.4 1012.6
08 19.09 ЮЗ 2-3
{3}
н/о н/о +21.2 +13.0 59 +23 +23 комфорт 1018.8 1013.1
09 19.09 ЮЗ 3 н/о н/о +22.9 +13.0 54 +26 +26 жарко 1018.9 1013.2
10 19.09 З 4-6
{7}
н/о н/о +24.7 +12.6 47 +27 +27 жарко 1018.9 1013.2
11 19.09 З 3-6
{7}
н/о н/о +25.7 +12.9 45 +28 +28 жарко 1018.5 1012.8
12 19.09 Ю 3-5
{8}
н/о н/о +26.8 +12.6 41 +28 +28 жарко 1018.0 1012.4
13 19.09 ЮЗ 5-8
{8}
н/о н/о +27.9 +11.9 37 +29 +29 жарко 1017.6 1012.0
14 19.09 ЮЗ 5-8
{8}
н/о н/о +28.7 +11.0 33 +29 +29 жарко 1017.1 1011.5
15 19.09 Ю 3-6
{8}
н/о н/о +28.9 +10.8 32 +29 +29 жарко 1016.7 1011.1
16 19.09 ЮЗ 3-5
{7}
н/о н/о +28.9 +11.1 33 +29 +29 жарко 1016.2 1010.6
17 19.09 Ю 2-3
{5}
н/о н/о +27.6 +11.4 36 +28 +28 жарко 1016.1 1010.5
18 19.09 Ю 3 н/о н/о +26.0 +11.7 41 +27 +27 жарко 1016.2 1010.6 +17.6 +29.3
19 19.09 Ю 2-3
{4}
н/о н/о +24.5 +11.8 45 +26 +26 жарко 1016.6 1010.9
20 19.09 Ю 2-4
{4}
н/о н/о +23.5 +12.1 49 +25 +25 комфорт 1016.7 1011.0
21 19.09 ЮЗ 2-4
{5}
н/о н/о +23.0 +12.0 50 +26 +26 жарко 1016.9 1011.2
22 19.09 ЮЗ 2-3
{4}
н/о н/о +22.3 +11.9 52 +25 +25 комфорт 1017.0 1011.3
23 19.09 Ю 2-3
{4}
н/о н/о +21.6 +11.8 54 +24 +24 комфорт 1016.9 1011.2
00 20.09 ЮЗ 2 н/о н/о +20.6 +11.7 57 +23 +23 комфорт 1016.8 1011.1
01 20.09 Ю 2-3
{4}
н/о н/о +20.1 +11.6 58 +22 +22 комфорт 1016.8 1011.0
02 20.09 ЮЗ 2-3
{3}
н/о н/о +19.3 +11.6 61 +21 +21 комфорт 1017.3 1011.5
03 20.09 ЮЗ 1-2
{4}
н/о н/о +18.5 +11.8 65 +20 +20 тепло 1017.8 1012.0
04 20.09 ЮЗ 2-2
{2}
н/о н/о +18.0 +12.1 68 +19 +19 тепло 1017.9 1012.1
05 20.09 ЮЗ 1-2
{2}
н/о н/о +17.1 +11.7 71 +18 +18 тепло 1018.1 1012.3
06 20.09 З 1 н/о н/о +17.4 +12.4 72 +18 +18 тепло 1018.6 1012.8 +16.7 +26.0
07 20.09 ЮЗ 1-2
{2}
н/о н/о +19.3 +12.9 66 +22 +22 комфорт 1018.8 1013.0
08 20.09 -03
{03}
н/о 1013.2
09 20.09 ЮЗ 3-4
{4}
н/о н/о +23.7 +12.1 48 1018.1 1012.4
10 20.09 ЮЗ 3-5
{5}
н/о н/о +24.9 +11.5 43 +26 +26 жарко 1018.3 1012.6
11 20.09 Ю 4-6
{6}
н/о н/о +25.8 +11.6 41 +27 +27 жарко 1017.4 1011.8
12 20.09 ЮЗ 3-6
{7}
н/о н/о +27.4 +12.1 39 +29 +29 жарко 1016.6 1011.0
13 20.09 ЮЗ 7-10
{10}
н/о н/о +28.4 +11.7 36 +29 +29 жарко 1015.7 1010.1
14 20.09 З 4-7
{10}
н/о н/о +29.7 +11.2 32 +30 +30 жарко 1015.1 1009.5
15 20.09 ЮЗ 5-8
{10}
н/о н/о +29.6 +11.0 32 +30 +30 жарко 1014.6 1009.0
16 20.09 ЮЗ 4-6
{10}
н/о н/о +28.8 +9.9 31 +29 +29 жарко 1014.3 1008.7
17 20.09 З 2-3
{5}
н/о н/о +27.3 +10.5 35 +28 +28 жарко 1014.1 1008.5
18 20.09 ЮЗ 1 н/о н/о +24.9 +11.0 42 +26 +26 жарко 1014.0 1008.4 +17.4 +29.8
19 20.09 штиль 0-1
{2}
н/о н/о +22.0 +11.4 51 +24 +24 комфорт 1014.1 1008.4
20 20.09 ЮЗ 1-1
{2}
н/о н/о +20.7 +11.3 55 +24 +24 комфорт 1013.7 1008.0
21 20.09 Ю 1-2
{3}
н/о н/о +18.8 +11.4 62 +21 +21 комфорт 1013.7 1007.9
22 20.09 Ю 1-2
{3}
н/о н/о +17.8 +11.2 65 +19 +19 тепло 1013.2 1007.4
23 20.09 Ю 2-3
{4}
н/о н/о +19.3 +12.3 64 +21 +21 комфорт 1012.6 1006.9
00 21.09 ЮЗ 1 н/о н/о +18.6 +12.0 65 +20 +20 тепло 1012.3 1006.5
01 21.09 Ю 2-3
{3}
н/о н/о +18.5 +11.9 65 +20 +20 тепло 1011.8 1006.0
02 21.09 Ю 3-4
{4}
н/о н/о +17.6 +11.8 69 +18 +18 тепло 1011.3 1005.5
03 21.09 Ю 2-4
{4}
н/о н/о +17.2 +11.9 71 +18 +18 тепло 1010.8 1005.0
04 21.09 Ю 3-5
{5}
н/о н/о +18.7 +12.7 68 +20 +20 тепло 1010.1 1004.4
05 21.09 Ю 2-4
{5}
н/о н/о +17.9 +12.7 72 +18 +18 тепло 1009.5 1003.7
06 21.09 Ю 2 н/о н/о +18.6 +13.1 70 +20 +20 тепло 1009.1 1003.4 +17.2 +24.9
07 21.09 Ю 3-6
{6}
н/о н/о +21.3 +13.3 60 +24 +24 комфорт 1008.7 1003.0
08 21.09 Ю 4-7
{7}
н/о н/о +23.2 +13.2 53 +26 +26 жарко 1007.6 1002.0
09 21.09 Ю 5 н/о н/о +26.2 +12.6 43 +28 +28 жарко 1007.3 1001.7
10 21.09 Ю 5-9
{11}
н/о н/о +27.4 +12.2 39 +29 +29 жарко 1006.3 1000.7
11 21.09 Ю 5-10
{12}
н/о н/о +29.1 +10.8 32 +29 +29 жарко 1005.0 999.5
12 21.09 ЮЗ 6-13
{13}
н/о н/о +29.9 +11.4 32 +30 +30 жарко 1004.0 998.5
13 21.09 ЮЗ 9-15
{15}
н/о н/о +29.4 +11.2 32 +30 +30 жарко 1003.4 997.9
14 21.09 ЮЗ 7-12
{15}
н/о н/о +27.8 +11.4 36 +29 +29 жарко 1003.0 997.5
15 21.09 СЗ 4-22
{22}
н/о н/о +21.1 +13.9 63 +24 +24 комфорт 1004.6 998.9 0.0
16 21.09 З 8-11
{23}
н/о н/о +15.0 +11.8 81 +13 +13 по сезону 1007.2 1001.4
17 21.09 З 6-9
{12}
н/о н/о +13.2 +10.9 86 +11 +11 прохладно 1007.5 1001.7
18 21.09 З 3 н/о н/о +13.5 +11.5 88 +12 +12 прохладно 1008.5 1002.7 +13.1 +30.6 1
19 21.09 З 4-6
{8}
н/о н/о +13.7 +11.7 88 +12 +12 по сезону 1009.4 1003.6
20 21.09 ЮЗ 5-8
{8}
н/о н/о +13.8 +11.2 84 +12 +12 по сезону 1010.7 1004.9
21 21.09 ЮЗ 4-7
{8}
н/о н/о +13.4 +10.4 82 +12 +12 по сезону 1012.0 1006.1 0.3
22 21.09 ЮЗ 4-6
{7}
н/о н/о +12.8 +9.1 78 +11 +11 тепло 1012.7 1006.8
23 21.09 ЮЗ 4-5
{7}
н/о н/о +12.3 +7.6 73 +10 +10 по сезону 1012.9 1007.0
00 22.09 З 4 н/о н/о +12.0 +6.9 71 +10 +10 по сезону 1013.3 1007.4
01 22.09 ЮЗ 5-8
{8}
н/о н/о +11.9 +7.3 73 +10 +10 тепло 1013.7 1007.8
02 22.09 ЮЗ 4-7
{9}
н/о н/о +11.9 +7.3 73 +10 +10 по сезону 1014.1 1008.2
03 22.09 ЮЗ 4-6
{9}
н/о н/о +11.5 +7.0 74 +9 +9 по сезону 1014.4 1008.5
04 22.09 ЮЗ 4-7
{7}
н/о н/о +11.0 +6.6 74 +9 +9 тепло 1014.8 1008.9
05 22.09 ЮЗ 5-8
{8}
н/о н/о +10.8 +6.2 73 +8 +8 по сезону 1015.1 1009.2
06 22.09 ЮЗ 4 н/о н/о +10.4 +7.5 82 +8 +8 по сезону 1016.2 1010.2 +10.4 +13.8 0.4
08 22.09 З 6-10
{10}
н/о н/о +13.4 +8.0 70 +11 +11 по сезону 1017.4 1011.5
09 22.09 ЮЗ 6 н/о н/о +14.3 +7.6 64 +12 +12 по сезону 1017.9 1012.0 0.0
11 22.09 З 6-9
{10}
н/о н/о +15.1 +6.6 57 +14 +14 по сезону 1017.9 1012.0
10 22.09 З 7-12
{12}
н/о н/о +15.2 +7.0 58 +14 +14 прохладно 1017.9 1012.0
12 22.09 З 6-10
{12}
н/о н/о +16.7 +6.4 51 +16 +16 по сезону 1017.4 1011.6 0.0
13 22.09 З 7-10
{10}
н/о н/о +17.0 +5.5 47 +16 +16 тепло 1017.2 1011.4
14 22.09 З 7-12
{13}
н/о н/о +17.2 +3.8 41 +16 +16 по сезону 1016.9 1011.1
15 22.09 З 5-10
{13}
н/о н/о +17.1 +3.8 41 +16 +16 по сезону 1016.9 1011.1 0.0
17 22.09 З 5-8
{10}
н/о н/о +16.0 +4.1 45 +15 +15 тепло 1016.4 1010.6
16 22.09 З 6-11
{11}
н/о н/о +16.8 +3.5 41 +16 +16 тепло 1016.6 1010.8
18 22.09 ЮЗ 3 н/о н/о +15.4 +4.7 49 +15 +15 по сезону 1016.6 1010.7 +10.4 +17.9
19 22.09 ЮЗ 2-4
{6}
н/о н/о +15.2 +5.2 51 +15 +15 тепло 1016.5 1010.6
20 22.09 З 5-7
{10}
н/о н/о +13.5 +6.0 60 +12 +12 по сезону 1016.7 1010.8
21 22.09 З 3-5
{10}
н/о н/о +12.3 +7.6 73 +11 +11 по сезону 1017.0 1011.1 0.0
23 22.09 ЮЗ 3-4
{6}
н/о н/о +11.2 +8.1 81 +9 +9 по сезону 1016.7 1010.8
22 22.09 З 5-7
{7}
н/о н/о +11.9 +7.7 75 +9 +9 по сезону 1017.0 1011.1
00 23.09 ЮЗ 3 н/о н/о +10.9 +8.3 84 +9 +9 по сезону 1016.5 1010.6 0.2
01 23.09 З 4-5
{6}
н/о н/о +10.7 +8.0 83 +8 +8 по сезону 1016.4 1010.5
02 23.09 З 3-4
{6}
н/о н/о +10.5 +7.9 84 +8 +8 по сезону 1016.0 1010.1
03 23.09 ЮЗ 2-3
{6}
н/о н/о +9.9 +7.7 86 +8 +8 по сезону 1015.8 1009.8 0.0
05 23.09 ЮЗ 2-3
{3}
н/о н/о +9.6 +7.9 89 +8 +8 по сезону 1015.4 1009.4
04 23.09 ЮЗ 2-4
{5}
н/о н/о +9.6 +7.8 89 +8 +8 по сезону 1015.5 1009.5
06 23.09 ЮЗ 2 н/о н/о +10.0 +8.1 88 +8 +8 по сезону 1014.9 1008.9 +9.3 +15.5 0.2
07 23.09 ЮЗ 2-4
{4}
н/о н/о +10.9 +8.3 84 +10 +10 по сезону 1015.1 1009.2
08 23.09 З 3-5
{5}
н/о н/о +12.1 +8.1 77 +11 +11 по сезону 1014.9 1009.0
09 23.09 З 2 н/о н/о +12.6 +7.5 71 +12 +12 по сезону 1014.3 1008.4
11 23.09 Ю 3-5
{5}
н/о н/о +13.7 +6.1 60 +13 +13 прохладно 1012.6 1006.7
10 23.09 Ю 2-3
{4}
н/о н/о +13.5 +6.3 62 +13 +13 прохладно 1013.8 1007.9
12 23.09 Ю 2-4
{5}
н/о н/о +13.0 +7.3 68 +12 +12 прохладно 1011.5 1005.6 0.0
13 23.09 ЮВ 1-2
{4}
н/о н/о +12.1 +8.9 81 +12 +12 по сезону 1010.7 1004.8
14 23.09 В 3-4
{4}
н/о н/о +11.1 +9.0 87 +9 +9 холодно 1009.4 1003.5
15 23.09 СВ 3-5
{7}
н/о н/о +10.8 +9.6 92 +9 +9 холодно 1007.7 1001.8 6
17 23.09 СВ 6
{8}
н/о н/о +9.7 +8.0 89 +6 +6 холодно 1004.9 999.0
16 23.09 СВ 5-7
{7}
н/о н/о +10.5 +9.1 91 +7 +7 холодно 1006.9 1001.0
18 23.09 С 6 н/о н/о +9.6 +8.0 90 +6 +6 очень
холодно
1007.0 1001.1 +9.6 +13.9 5
19 23.09 С 7-11
{11}
н/о н/о +9.0 +6.3 83 +5 +5 прохладно 1008.6 1002.7
20 23.09 СЗ 3-5
{9}
н/о н/о +8.7 +6.9 88 +6 +6 холодно 1009.5 1003.6
21 23.09 СЗ 6-7
{11}
н/о н/о +8.8 +7.5 92 +5 +5 очень
холодно
1010.9 1004.9 2
23 23.09 З 5-7
{8}
н/о н/о +8.9 +7.5 91 +5 +5 по сезону 1013.1 1007.1
22 23.09 З 6-8
{11}
н/о н/о +8.7 +6.9 88 +5 +5 прохладно 1012.0 1006.0
00 24.09 З 7 н/о н/о +8.7 +7.0 89 +4 +4 холодно 1014.3 1008.3 0.5
01 24.09 З 7-10
{11}
н/о н/о +8.6 +6.6 87 +4 +4 по сезону 1015.5 1009.5
02 24.09 З 6-8
{10}
н/о н/о +8.2 +6.3 88 +4 +4 прохладно 1016.7 1010.7
03 24.09 З 6-8
{11}
н/о н/о +7.9 +5.8 87 +4 +4 холодно 1017.8 1011.8
05 24.09 З 7-11
{11}
н/о н/о +7.6 +5.2 85 +3 +3 по сезону 1019.1 1013.1
04 24.09 З 7-11
{11}
н/о н/о +7.8 +5.5 85 +3 +3 прохладно 1018.4 1012.4
06 24.09 З 7 н/о н/о +7.9 +5.1 82 +3 +3 холодно 1019.7 1013.7 +7.6 +9.7 2
07 24.09 З 7-11
{12}
н/о н/о +8.9 +5.5 79 +5 +5 холодно 1020.7 1014.7
08 24.09 З 9-14
{14}
н/о н/о +10.1 +5.1 71 +6 +6 холодно 1021.7 1015.7
09 24.09 З 10 н/о н/о +11.1 +4.2 62 +7 +7 холодно 1022.7 1016.7
11 24.09 З 10-14
{16}
н/о н/о +13.0 +3.5 52 +10 +10 холодно 1023.6 1017.7
10 24.09 СЗ 10-15
{15}
н/о н/о +12.0 +4.0 58 +9 +9 холодно 1023.3 1017.3
12 24.09 СЗ 10-16
{16}
н/о н/о +10.6 +3.8 63 +7 +7 очень
холодно
1024.5 1018.5 0.0
13 24.09 С 8-14
{17}
н/о н/о +8.4 +5.0 79 +4 +4 очень
холодно
1025.4 1019.3
14 24.09 СЗ 6-9
{10}
н/о н/о +9.8 +5.3 74 +6 +6 очень
холодно
1025.1 1019.1
15 24.09 З 7-11
{17}
н/о н/о +12.2 +5.3 63 +9 +9 холодно 1025.1 1019.1 1
17 24.09 З 7-12
{12}
н/о н/о +10.9 +3.1 59 +8 +8 прохладно 1026.0 1020.0
16 24.09 СЗ 3-6
{9}
н/о н/о +10.4 +5.2 70 +8 +8 холодно 1025.6 1019.6
18 24.09 З 6 н/о н/о +10.0 +3.2 63 +7 +7 холодно 1026.8 1020.8 +7.9 +14.2 2
19 24.09 З 6-9
{13}
н/о н/о +9.2 +3.6 68 +6 +6 прохладно 1028.0 1021.9
20 24.09 З 4-6
{9}
н/о н/о +8.4 +2.4 66 +6 +6 холодно 1028.8 1022.7
21 24.09 З 5-9
{13}
н/о н/о +8.0 +2.3 67 +5 +5 очень
холодно
1029.4 1023.3 0.0
23 24.09 З 5-8
{8}
н/о н/о +7.1 +2.7 74 +3 +3 прохладно 1030.8 1024.7
22 24.09 СЗ 5-8
{8}
н/о н/о +7.8 +2.4 69 +4 +4 холодно 1030.2 1024.1
00 25.09 З 5 н/о н/о +6.7 +2.8 76 +3 +3 очень
холодно
1031.4 1025.3
01 25.09 З 5-8
{8}
н/о н/о +6.4 +2.9 78 +2 +2 прохладно 1031.8 1025.7
02 25.09 З 5-7
{9}
н/о н/о +6.0 +2.9 80 +2 +2 холодно 1032.2 1026.1
03 25.09 З 5-7
{9}
н/о н/о +5.8 +2.7 80 +1 +1 очень
холодно
1032.9 1026.7
05 25.09 З 4-6
{8}
н/о н/о +5.1 +2.6 84 +1 +1 прохладно 1034.3 1028.1
04 25.09 СЗ 5-8
{9}
н/о н/о +5.7 +2.7 81 +1 +1 холодно 1033.3 1027.1
06 25.09 З 5 н/о н/о +5.5 +2.8 83 +1 +1 очень
холодно
1034.8 1028.6 +5.1 +10.2 0.0
07 25.09 СЗ 5-7
{7}
н/о н/о +7.1 +3.3 77 +3 +3 холодно 1035.4 1029.3
08 25.09 СЗ 5-7
{8}
н/о н/о +8.7 +4.0 72 +5 +5 холодно 1036.2 1030.1
09 25.09 СЗ 4 н/о н/о +10.6 +4.5 66 +8 +8 холодно 1036.7 1030.6
11 25.09 СЗ 6-8
{10}
н/о н/о +13.0 +2.6 49 +11 +11 прохладно 1037.0 1031.0
10 25.09 СЗ 6-9
{9}
н/о н/о +11.8 +3.6 57 +9 +9 холодно 1037.1 1031.0
12 25.09 З 4-7
{11}
н/о н/о +13.8 +1.8 44 +13 +13 прохладно 1037.2 1031.2 0.0
13 25.09 СЗ 6-8
{9}
н/о н/о +13.1 +0.9 43 +11 +11 прохладно 1037.4 1031.4
14 25.09 С 5-7
{9}
н/о н/о +14.2 -0.1 37 +13 +13 по сезону 1037.2 1031.2
15 25.09 СЗ 5-8
{9}
н/о н/о +14.2 0.0 38 +13 +13 по сезону 1037.0 1031.0 0.0
17 25.09 СЗ 3-5
{6}
н/о н/о +11.7 +0.1 45 +10 +10 по сезону 1037.3 1031.2
16 25.09 СЗ 4-6
{6}
н/о н/о +13.6 +0.1 40 +12 +12 по сезону 1037.0 1031.0
18 25.09 ЮЗ 2 н/о н/о +11.2 +1.2 50 +10 +10 прохладно 1037.7 1031.6 +5.6 +14.7 0.0
19 25.09 ЮЗ 2-3
{3}
н/о н/о +10.2 +2.1 57 +9 +9 по сезону 1037.7 1031.6
20 25.09 ЮЗ 3-4
{4}
н/о н/о +9.2 +2.4 62 +7 +7 прохладно 1037.9 1031.8
21 25.09 ЮЗ 2-3
{4}
н/о н/о +8.0 +2.6 69 +6 +6 холодно 1038.3 1032.2
23 25.09 ЮЗ 2-3
{4}
н/о н/о +6.7 +1.7 70 +5 +5 по сезону 1037.7 1031.5
22 25.09 ЮЗ 2-2
{3}
н/о н/о +6.3 +1.6 72 +4 +4 прохладно 1038.2 1032.0
00 26.09 ЮЗ 2 н/о н/о +6.3 +1.5 71 +4 +4 холодно 1037.7 1031.5
01 26.09 ЮЗ 2-3
{4}
н/о н/о +6.4 +1.3 70 +4 +4 по сезону 1037.2 1031.0
02 26.09 ЮЗ 2-4
{4}
н/о н/о +5.7 +1.1 72 +3 +3 прохладно 1036.5 1030.3
03 26.09 ЮЗ 2-4
{4}
н/о н/о +5.7 +1.4 74 +3 +3 холодно 1036.6 1030.4
05 26.09 ЮЗ 3-4
{5}
н/о н/о +5.6 +1.4 74 +2 +2 прохладно 1035.5 1029.3
04 26.09 ЮЗ 3-5
{5}
н/о н/о +5.6 +1.3 74 +2 +2 холодно 1036.3 1030.1
06 26.09 ЮЗ 3 н/о н/о +6.0 +1.5 73 +3 +3 холодно 1034.9 1028.7 +5.4 +11.2
07 26.09 ЮЗ 3-4
{5}
н/о н/о +7.1 +2.0 70 +4 +4 тепло 1034.7 1028.6

 

Местоположение метеостанции Berlin (Германия): широта 52.47 долгота 13.40 высота над уровнем моря 50 м.

В архиве по умолчанию представлена погода в Berlin за последнюю неделю. Архивные данные за месяц целиком и за предыдущие месяцы, начиная с января 2011 года, Вы можете получить, выбрав интересующий диапазон дат из раскрывающегося списка и нажав кнопку "Ввод!".


*Определитесь, кто Вы:
робот инопланетянин человек

Внимание! Время в таблицах - всемирное. Для получения местного времени необходимо прибавить поправку, которая в Berlin равна 1 ч.

Смотрите также архив погоды в соседних городах и на ближайших метеорологических станциях:

Погода в Berlin-Dahlem (Германия) (7 км)
Погода в Berlin-Tegel (Германия) (12 км)
Погода в Berlin-Schonefeld (Германия) (13 км)
Погода в Potsdam (Германия) (25 км)
Погода в Baruth (Германия) (42 км)
Погода в Lindenberg (Германия) (56 км)
Погода в Neuruppin (Германия) (62 км)
Погода в Angermuende (Германия) (74 км)
Погода в Wiesenburg (Германия) (74 км)
Погода в Manschnow (Германия) (78 км)

Пояснения к столбцам:

Ветер - указаны скорость ветра в м/с - средняя за 10 мин, порывы в срок и между сроками (в фигурных скобках) и направление, откуда дует ветер: С - северный, СВ - северо-восточный, В - восточный, ЮВ - юго-восточный, Ю - южный, ЮЗ - юго-западный, З - западный, СЗ - северо-западный.
Видимость - горизонтальная дальность видимости в метрах или километрах. При видимости от 1 до 10 км при отсутствии осадков обычно наблюдается дымка, при ухудшении видимости до 1 км и менее - туман. В сухую погоду видимость может ухудшаться дымом, пылью или мглою.
Явления - указаны атмосферные явления, наблюдавшиеся в срок или в последний час перед сроком; фигурными скобками обозначены явления, наблюдавшиеся между сроками (за 1-3 часа до срока); квадратными скобками обозначены град или гололедные отложения с указанием их диаметра в мм.
Облачность - указаны через наклонную черту общая и нижняя облачность в баллах и высота нижней границы облаков в метрах; квадратными скобками обозначены формы облаков: Ci - перистые, Cs - перисто-слоистые, Cc - перисто-кучевые, Ac - высококучевые, As - высокослоистые, Sc - слоисто-кучевые, Ns - слоисто-дождевые, Cu - кучевые, Cb - кучево-дождевые. Подробнее классификацию облаков см. в Атласе облаков (PDF).
T - Температура воздуха - температура, измеренная на высоте 2 м над землей.
Td - Температура точки росы - температура, при понижении до которой содержащийся в воздухе водяной пар достигнет насыщения.
f - Относительная влажность воздуха - влажноcть воздуха, измеренная на высоте 2 м над землей.
Te - Эффективная температура - температура, которую ощущает одетый по сезону человек в тени. Характеристика душности погоды. При расчете учитывается влияние влажности воздуха и скорости ветра на теплоощущения человека.
Tes - Эффективная температура на солнце - температура, которую ощущает человек, с поправкой на солнечный нагрев. Характеристика знойности погоды. Зависит от высоты солнца над горизонтом, облачности и скорости ветра. Ночью, в пасмурную погоду, а также при ветре 12 м/с и более поправка равна нулю.
P - Атмосферное давление - приведенное к уровню моря атмосферное давление.
Po - Атмосферное давление - измеренное на уровне метеостанции атмосферное давление.
Tmin - Минимальная температура - минимум температуры воздуха на высоте 2 м над землей.
Tmax - Максимальная температура - максимум температуры воздуха на высоте 2 м над землей.
R - Количество осадков - Количество выпавших осадков за период времени, мм. При наведении курсора мыши на число - период времени, за который выпало указанное количество осадков.
R24 - Количество осадков - Количество выпавших осадков за 24 часа, мм.
S - Снежный покров - Высота снежного покрова, см. При наведении курсора мыши на число - состояние снежного покрова и степень покрытия местности в баллах.